Weather in Tomakomai

Japan     42°40′08″N   141°42′18″E
temp.,
°C
wind,
m/s
gust,
m/s
humid.,
%
clouds,
%
prec.,
mm/h
press.,
hPa
HPBL,
m
10 may, mon
mon1000:00+7s2584100 0.0 999106
03:00+5s259187 0.0 999115
06:00+7s238890 0.4 1000158
09:00+9nnw367798 0.6 1001857
12:00+8nnw7108189 0.4 1003578
15:00+8nnw8118189 0.4 1005840
18:00+6nnw8158899 0.0 10081101
21:00+6nnw61285100 0.0 10101086
11 may, tue
tue1100:00+6nnw4987100 0.0 10111048
03:00+6nnw4989100 0.1 10111088
06:00+6nnw51087100 0.1 1013870
09:00+8nnw6980100 0.1 10131087
12:00+10nnw8965100 0.1 10141207
15:00+10nnw8106590 0.1 1014928
18:00+7nnw7117810 0.0 1017523
21:00+5nnw510855 0.0 1019342
12 may, wed
wed1200:00+4n38911 0.0 1020228
03:00+3n38952 0.0 1021209
06:00+5n35800 0.0 1022256
09:00+11nw11572 0.0 1022864
12:00+12s54617 0.0 1023892
15:00+10s556921 0.0 1022599
18:00+7s5884100 0.0 1022365
21:00+5sse4888100 0.0 1024337
13 may, thu
thu1300:00+6sse4984100 0.0 1022340
03:00+6s2685100 0.0 1021234
06:00+9sse41082100 0.0 1020604
09:00+10sse5786100 0.0 1019580
12:00+12s458383 0.2 1017484
15:00+13sse44744 0.2 1016484
18:00+10s2288100 0.0 101693
21:00+7s239726 0.0 101752
14 may, fri
fri1400:00+6se119598 0.0 101736
03:00+7ene0190100 0.0 101510
06:00+10nw1179100 0.0 101654
09:00+14s226568 0.0 1016317
12:00+17s44541 0.0 1015531
15:00+15s566191 0.0 1015318
18:00+10s3684100 0.0 1015144
21:00+8sse2388100 0.0 101649